Home   Weather   Trois-Rivieres   Past weeks

Flag for Canada Past Weather in Trois-Rivieres, Quebec, Canada — Yesterday and Last 2 Weeks

Now
31 °F

Chilly.


Feels Like: 31 °F
Forecast: 32 / 36 °F
Wind: No wind

Location: Trois Rivieres

Current Time: Jan 21, 2017 at 8:43:02 am

Latest Report: Jan 21, 2017 at 7:00 am


Visibility: N/A

Pressure: 29.79 "Hg

Humidity: 99%

Dew Point: 31 °F

Location of Trois-RivieresLocation

Past Weather in Trois-Rivieres — Graph

°F

Trois-Rivieres Temperature Yesterday

Maximum temperature yesterday: 34 °F (at 3:00 pm)
Minimum temperature yesterday: 31 °F (at 1:00 am)
Average temperature yesterday: 32 °F

High & Low Weather Summary for the Past Weeks

 TemperatureHumidityPressure
High39 °F (Jan 11, 9:00 am)100% (Jan 10, 10:00 pm)30.78 "Hg (Jan 10, 10:00 pm)
Low-8 °F (Jan 9, 7:00 am)44% (Jan 13, 2:00 pm)29.59 "Hg (Jan 11, 6:00 am)
Average18 °F82%30.19 "Hg
* Reported Jan 6 7:00 am — Jan 21 7:00 am, Trois-Rivieres, Weather by CustomWeather, © 2017

Note: Actual official high and low records may vary slightly from our data, if they occured in-between our weather recording intervals... More about our weather records

Advertising

Trois-Rivieres Weather History for the Previous 24 Hours

Scroll right to see more
 ConditionsComfort  
Time TempWeatherWind HumidityBarometerVisibility
7:00 am
Sat, Jan 21
31 °FChilly.No wind99%29.79 "HgN/A
6:00 am31 °FChilly.No wind98%29.80 "HgN/A
5:00 am31 °FChilly.No wind96%29.81 "HgN/A
4:00 am31 °FChilly.1 mph93%29.81 "HgN/A
3:00 am32 °FChilly.2 mph93%29.82 "HgN/A
2:00 am32 °FChilly.3 mph93%29.83 "HgN/A
1:00 am32 °FChilly.1 mph92%29.83 "HgN/A
12:00 am32 °FChilly.6 mph94%29.84 "HgN/A
11:00 pm
Fri, Jan 20
31 °FChilly.1 mph93%29.85 "HgN/A
10:00 pm31 °FChilly.6 mph93%29.86 "HgN/A
9:00 pm33 °FChilly.6 mph87%29.88 "HgN/A
8:00 pm33 °FChilly.7 mph86%29.88 "HgN/A
7:00 pm33 °FChilly.3 mph87%29.90 "HgN/A
6:00 pm33 °FChilly.3 mph88%29.90 "HgN/A
5:00 pm33 °FChilly.7 mph88%29.89 "HgN/A
4:00 pm34 °FChilly.5 mph85%29.90 "HgN/A
3:00 pm34 °FChilly.5 mph87%29.90 "HgN/A
2:00 pm34 °FChilly.No wind92%29.92 "HgN/A
1:00 pm33 °FChilly.1 mph96%29.94 "HgN/A
12:00 pm33 °FChilly.1 mph96%29.95 "HgN/A
11:00 am33 °FChilly.2 mph95%29.98 "HgN/A
10:00 am32 °FChilly.2 mph100%29.99 "HgN/A
9:00 am32 °FChilly.1 mph100%29.99 "HgN/A
8:00 am31 °FChilly.1 mph100%29.99 "HgN/A
Weather by CustomWeather, © 2017

See weather overviewHow to use our weather pages